Burlington, VT

3:49 AM EST on January 18, 2018 (GMT -0500)
Burlington International

Weather History for KBTV - August, 2014

Change the Weather History Date:

Thursday, August 21, 2014

  Actual Average Record
Temperature  
Mean Temperature 68 °F 68 °F  
Max Temperature 73 °F 79 °F 93 °F (1945)
Min Temperature 63 °F 58 °F 43 °F (1934)
Degree Days  
Heating Degree Days 0 1  
Month to date heating degree days 12 17  
Since 1 June heating degree days 33 103  
Since 1 July heating degree days 13 30  
Cooling Degree Days 3 4  
Month to date cooling degree days 93 108  
Year to date cooling degree days 443 411  
Since 1 June cooling degree days 421 392  
Growing Degree Days 18 (Base 50)    
Moisture  
Dew Point 60 °F    
Average Humidity 78    
Maximum Humidity 93    
Minimum Humidity 63    
Precipitation  
Precipitation 0.14 in 0.12 in 1.54 in (1927)
Month to date precipitation 1.90 2.79  
Year to date precipitation 25.55 22.95  
Snow  
Snow 0.00 in 0.00 in 0.00 in (2002)
Month to date snowfall 0.0 0.0  
Since 1 June snowfall 0.0 0.0  
Since 1 July snowfall 0.0 0.0  
Snow Depth 0.00 in    
Sea Level Pressure  
Sea Level Pressure 30.04 in    
Wind  
Wind Speed 7 mph (SE)    
Max Wind Speed 18 mph    
Max Gust Speed 24 mph    
Visibility 10 miles    
Events Rain    
T = Trace of Precipitation, MM = Missing Value Source: NWS Daily Summary

Daily Weather History Graph

Daily Weather History Graph

Search for Another Location

Airport or City:

Trip Planner

Search our weather history database for the weather conditions in past years. The results will help you decide how hot, cold, wet, or windy it might be!

Date:

Astronomy

Aug. 21, 2014 Rise Set
Actual Time 6:02 AM EDT 7:48 PM EDT
Civil Twilight 5:31 AM EDT 8:19 PM EDT
Nautical Twilight 4:53 AM EDT 8:56 PM EDT
Astronomical Twilight 4:12 AM EDT 9:37 PM EDT
Moon 2:26 AM EDT (8/21) 5:18 PM EDT (8/21)
Length of Visible Light 14h 47m
Length of Day
13h 45m
Waning Crescent, 13% of the Moon is Illuminated
Aug 21
Waning Crescent
Aug 25
New
Sep 2
First Quarter
Sep 8
Full
Sep 15
Last Quarter

Hourly Weather History & Observations

Time (EDT) Temp. Dew Point Humidity Pressure Visibility Wind Dir Wind Speed Gust Speed Precip Events Conditions
12:54 AM 70.0 °F 57.9 °F 65% 30.00 in 10.0 mi Calm Calm - N/A   Clear
1:54 AM 70.0 °F 57.9 °F 65% 30.00 in 10.0 mi Calm Calm - N/A   Mostly Cloudy
2:54 AM 69.1 °F 57.9 °F 68% 30.01 in 10.0 mi SSE 5.8 mph - N/A   Clear
3:54 AM 69.1 °F 59.0 °F 70% 30.01 in 10.0 mi South 8.1 mph - 0.00 in Rain Light Rain
4:54 AM 66.9 °F 64.0 °F 90% 30.01 in 9.0 mi East 3.5 mph - 0.04 in Rain Light Rain
5:54 AM 66.0 °F 62.1 °F 87% 30.02 in 10.0 mi SE 6.9 mph - 0.02 in Rain Light Rain
6:54 AM 66.0 °F 63.0 °F 90% 30.04 in 7.0 mi SSE 3.5 mph - 0.01 in Rain Light Rain
7:54 AM 66.0 °F 63.0 °F 90% 30.04 in 9.0 mi ESE 5.8 mph - 0.03 in Rain Light Rain
8:17 AM 66.0 °F 62.1 °F 87% 30.05 in 10.0 mi ESE 6.9 mph - 0.01 in   Overcast
8:54 AM 66.0 °F 62.1 °F 87% 30.05 in 10.0 mi SE 6.9 mph - 0.01 in   Overcast
9:54 AM 68.0 °F 63.0 °F 84% 30.04 in 10.0 mi East 6.9 mph - N/A   Overcast
10:44 AM 69.1 °F 62.1 °F 78% 30.04 in 10.0 mi SE 8.1 mph - N/A   Mostly Cloudy
10:54 AM 70.0 °F 61.0 °F 73% 30.04 in 10.0 mi SE 8.1 mph - N/A   Mostly Cloudy
11:54 AM 69.1 °F 63.0 °F 81% 30.04 in 10.0 mi ESE 5.8 mph - 0.00 in Rain Light Rain
12:10 PM 68.0 °F 63.0 °F 84% 30.05 in 10.0 mi SE 4.6 mph - 0.00 in Rain Light Rain
12:54 PM 68.0 °F 64.0 °F 87% 30.04 in 8.0 mi ESE 6.9 mph - 0.01 in Rain Light Rain
1:01 PM 69.1 °F 64.9 °F 87% 30.04 in 10.0 mi ESE 8.1 mph - 0.01 in Rain Light Rain
1:54 PM 70.0 °F 62.1 °F 76% 30.04 in 10.0 mi ESE 16.1 mph - 0.02 in   Mostly Cloudy
2:54 PM 72.0 °F 60.1 °F 66% 30.04 in 10.0 mi East 15.0 mph - N/A   Mostly Cloudy
3:54 PM 69.1 °F 57.9 °F 68% 30.04 in 10.0 mi ESE 9.2 mph - N/A   Mostly Cloudy
4:54 PM 68.0 °F 57.0 °F 68% 30.04 in 10.0 mi ESE 10.4 mph - N/A   Mostly Cloudy
5:05 PM 66.9 °F 55.9 °F 68% 30.04 in 10.0 mi ESE 11.5 mph - N/A   Overcast
5:54 PM 68.0 °F 55.9 °F 65% 30.04 in 10.0 mi ESE 13.8 mph - N/A   Overcast
6:54 PM 66.9 °F 54.0 °F 63% 30.04 in 10.0 mi SSE 6.9 mph - N/A   Overcast
7:54 PM 66.0 °F 55.0 °F 68% 30.05 in 10.0 mi SE 5.8 mph - N/A   Overcast
8:54 PM 66.0 °F 55.9 °F 70% 30.06 in 10.0 mi SSE 5.8 mph - N/A   Overcast
9:54 PM 64.9 °F 57.9 °F 78% 30.06 in 10.0 mi South 5.8 mph - N/A   Overcast
10:26 PM 63.0 °F 60.1 °F 90% 30.05 in 10.0 mi South 3.5 mph - 0.00 in   Overcast
10:54 PM 63.0 °F 60.1 °F 90% 30.04 in 10.0 mi South 4.6 mph - 0.00 in   Overcast
11:54 PM 64.0 °F 60.1 °F 87% 30.04 in 10.0 mi South 3.5 mph - N/A   Overcast